Wind_Speed
21 24 26 26 28 29 28 27 28 28 22 16 16 15 15 18 19 17 15 15 16 15 12 10 8 7 7 6 6 6 6 5 4 5 4 4 3 3 3 4 5 6 6 6 6 6 6 6 5 5 5 6 6 7 7 7 6 5 5 5 6 5 3 3 2 3 3 3 4 5 5 5 5 5 5 5 5 5 5 5 7 7 7 7 7
21 26 28 25 25 26 26 25 24 26 26 21 18 15 14 16 16 14 12 12 15 18 16 13 11 10 9 8 8 8 7 7 7 7 6 4 4 4 4 5 6 7 7 7 7 7 7 7 6 6 6 6 6 7 8 8 7 6 6 6 6 5 4 3 1 1 3 3 4 4 5 4 4 5 5 5 5 5 5 6 7 6 6 6 7
23 26 25 24 26 28 28 25 22 23 25 23 20 18 16 15 14 12 11 11 13 18 19 14 12 11 10 9 9 9 8 8 7 7 7 5 5 5 6 6 7 7 7 7 7 7 7 7 6 6 6 6 7 8 8 8 7 7 7 7 6 5 5 4 2 1 3 3 3 4 4 5 5 5 5 4 4 5 5 6 6 6 6 7 7
26 25 25 26 28 30 30 27 25 24 23 22 22 21 17 15 14 13 14 15 15 17 18 15 12 11 10 9 8 9 9 8 9 8 7 6 7 8 7 7 6 7 7 8 7 7 7 7 7 7 7 7 7 8 8 8 7 6 6 6 6 6 6 5 2 2 4 4 3 4 5 5 6 6 5 4 4 5 6 5 6 6 7 8 8
28 27 27 29 30 30 29 29 30 29 25 21 19 20 19 17 14 13 13 14 14 15 16 15 12 10 9 8 8 9 8 9 9 8 6 7 9 10 9 7 7 7 7 7 7 7 6 6 7 7 8 8 8 8 8 8 7 5 5 5 5 6 6 5 4 3 4 5 5 5 6 6 6 6 6 6 6 7 7 7 6 6 7 8 8
28 27 29 30 29 28 29 29 30 30 28 24 21 21 21 17 14 13 12 11 12 15 16 15 12 11 10 9 10 10 9 9 8 8 8 9 10 11 11 9 7 7 7 6 6 5 5 5 6 6 7 7 8 9 9 9 9 7 5 4 5 5 5 5 5 5 5 6 6 6 6 7 7 7 8 9 9 10 10 9 7 6 6 7 8
28 30 31 30 28 28 29 29 28 27 27 27 25 23 20 17 16 15 14 12 12 13 14 15 14 13 11 10 10 10 9 9 9 10 10 9 11 13 12 10 9 8 7 6 5 5 5 5 5 6 7 7 8 9 10 11 10 10 9 7 6 6 5 5 5 6 6 6 7 6 6 7 7 8 8 9 10 10 10 9 8 8 8 9 10
31 32 31 30 30 29 29 29 26 25 26 26 24 24 23 20 18 17 14 12 11 11 12 14 15 14 12 10 9 8 8 8 8 10 9 7 10 13 13 11 10 8 8 7 6 5 5 6 7 7 8 9 10 10 10 10 10 10 11 10 9 8 8 7 6 7 7 7 7 7 7 8 8 9 9 9 9 10 10 10 9 9 9 10 11
32 31 31 32 32 30 28 27 25 25 25 23 23 23 19 14 13 14 13 12 12 11 10 11 12 12 11 10 9 8 7 7 8 8 7 7 11 13 12 11 10 8 8 7 6 6 7 8 8 9 10 11 12 12 11 11 10 10 11 11 11 11 11 10 9 9 9 9 9 8 8 8 9 10 11 10 10 10 10 10 10 10 10 11 12
32 32 32 33 32 29 27 25 25 25 23 21 20 15 8 5 7 8 12 14 13 10 9 10 10 11 11 11 10 8 8 8 8 8 8 9 11 12 12 11 10 9 9 9 8 8 8 9 10 11 13 13 13 13 12 12 12 11 11 11 11 12 12 12 12 12 12 12 11 10 9 9 11 12 12 12 11 11 11 10 10 10 11 12 13
33 33 32 30 29 28 27 25 24 23 20 19 16 13 11 11 10 6 10 13 13 11 10 10 9 8 9 11 11 10 8 8 8 10 11 11 12 12 11 11 10 10 11 11 10 9 9 9 9 10 11 12 12 12 12 13 13 12 12 12 12 12 13 13 13 13 13 14 13 13 11 11 12 14 14 13 12 12 12 11 11 11 11 13 14
33 31 28 27 28 28 27 24 23 22 19 17 15 16 16 12 6 5 8 9 10 11 11 10 7 5 5 8 12 12 9 8 9 11 12 12 13 13 12 11 11 12 12 12 11 10 9 9 8 8 8 9 9 10 10 11 11 11 11 11 11 12 12 13 13 13 14 14 15 14 13 13 14 15 14 14 13 13 13 13 12 12 13 14 15
31 29 27 29 29 27 25 23 22 20 18 17 16 15 13 6 2 3 6 8 9 11 12 9 6 5 5 8 12 13 10 9 10 11 12 13 14 14 13 12 12 13 13 12 12 11 9 8 7 7 6 6 7 8 9 9 10 10 10 9 10 11 11 12 13 13 13 14 15 15 14 14 15 15 14 14 14 15 15 14 13 13 14 15 16
30 28 27 29 28 25 24 22 20 17 16 17 16 12 9 7 5 3 5 7 9 11 10 8 6 6 8 9 12 12 11 11 11 11 12 14 15 14 14 13 13 13 13 13 13 12 10 8 7 7 7 6 6 8 9 10 10 10 9 8 8 9 10 11 12 12 13 14 14 15 15 15 15 16 15 15 15 15 15 15 14 15 16 17 18
28 27 27 27 26 25 24 22 19 15 13 14 13 9 8 8 7 6 6 7 9 9 7 6 6 7 8 10 11 12 12 14 14 12 13 15 16 16 14 14 14 14 13 14 13 12 10 9 8 8 7 6 7 8 10 10 10 10 9 9 8 9 9 10 11 11 12 13 14 14 15 14 15 16 15 15 16 16 16 16 16 17 18 19 20
24 23 24 23 24 24 23 22 19 15 13 14 11 8 8 7 5 5 5 7 8 7 6 7 7 7 8 8 9 10 11 13 13 12 12 15 17 17 16 15 15 14 13 13 13 12 10 9 9 9 8 7 7 8 9 9 9 9 9 9 9 10 10 11 11 11 12 12 13 13 14 14 15 15 14 15 17 16 16 16 16 18 19 20 20
19 20 19 19 20 22 23 22 20 16 16 15 11 8 7 5 3 3 5 8 9 8 8 8 9 8 8 8 7 7 8 9 10 11 12 15 16 17 16 16 15 14 13 13 12 11 10 9 10 9 9 8 7 7 8 8 8 8 8 8 9 10 11 11 11 12 12 12 13 13 14 15 16 16 16 17 17 17 17 17 17 19 20 20 18
20 20 18 17 18 19 22 23 22 18 17 14 11 8 5 5 5 4 5 9 11 10 9 8 8 8 8 9 8 7 6 7 9 12 14 16 16 15 15 16 17 16 14 12 12 10 10 10 10 10 10 9 8 7 7 7 7 7 7 7 8 9 9 10 10 11 12 12 13 14 14 15 17 17 17 18 18 18 18 17 17 18 19 17 16
23 21 19 18 19 20 22 23 22 20 18 15 11 8 5 6 7 6 7 11 11 11 11 10 9 8 8 9 10 10 9 8 8 12 15 18 17 16 16 15 16 17 16 14 12 11 10 10 11 11 11 10 9 8 7 6 6 6 7 7 8 8 9 9 10 10 11 12 13 13 14 14 15 16 16 16 16 16 17 17 16 17 17 16 15
24 24 22 21 22 21 20 19 21 21 20 17 12 9 6 6 7 7 8 11 11 9 9 10 11 10 9 10 11 12 11 10 10 11 14 17 19 20 19 17 16 16 16 15 14 12 11 11 12 12 12 11 11 10 8 8 7 6 6 7 8 9 9 10 11 11 11 12 12 13 13 13 13 14 14 14 14 15 15 15 15 15 15 15 15
23 24 23 24 25 23 21 21 23 23 20 17 12 9 8 8 9 9 9 12 12 9 7 9 11 12 12 13 14 15 15 15 14 14 14 15 18 20 21 20 18 17 17 16 15 15 13 13 13 13 13 13 12 11 10 9 8 6 6 7 8 9 9 11 12 12 12 13 13 13 12 12 12 12 13 13 14 14 14 14 14 14 15 15 16
23 23 24 26 23 19 18 20 21 19 17 14 10 9 8 9 11 10 10 12 13 10 10 11 13 15 16 18 19 21 21 20 20 20 19 18 19 20 20 19 19 18 17 16 15 16 16 15 14 13 14 14 13 12 11 10 9 7 7 7 8 9 10 11 12 12 13 13 12 12 12 12 12 13 13 13 13 13 13 14 14 15 16 16 16
23 24 25 23 19 16 15 18 19 17 15 13 12 11 11 12 14 12 11 13 13 13 12 12 13 15 18 20 22 22 22 21 21 21 21 19 19 19 17 17 17 16 16 15 15 16 17 17 16 14 15 15 14 14 12 10 9 8 8 8 8 9 9 10 11 12 12 12 12 11 11 11 12 12 12 12 12 12 12 12 13 13 14 15 15
23 23 24 24 22 18 16 17 17 17 17 15 15 16 16 18 19 17 15 15 15 15 13 14 15 17 18 19 20 21 21 19 18 18 18 18 19 19 17 16 16 17 17 16 16 16 17 18 17 16 16 15 15 14 12 11 9 9 9 9 9 9 10 10 10 11 11 11 10 10 9 9 9 9 9 9 9 10 10 10 11 12 13 14 14
19 19 22 24 23 21 19 17 16 16 16 15 16 17 17 17 16 15 14 15 16 15 14 15 16 16 16 17 18 20 21 20 18 17 17 17 19 20 20 18 18 19 18 18 17 17 17 19 18 17 17 16 15 14 13 12 11 10 10 10 10 10 9 9 9 9 9 9 9 8 8 8 8 8 8 8 8 8 9 10 11 11 12 13 14
16 17 20 22 23 24 23 22 21 20 19 18 19 20 19 18 17 15 14 14 15 14 14 14 14 15 15 16 16 17 18 18 18 17 17 16 16 18 19 19 19 19 19 19 18 18 18 19 19 18 17 17 16 15 15 14 13 13 13 13 12 12 11 11 10 10 10 10 10 9 9 9 10 10 10 11 12 12 13 13 13 13 13 13 13
16 17 18 19 19 20 19 19 20 21 21 20 19 18 18 18 16 14 12 13 14 14 13 13 14 14 14 13 13 15 18 19 18 18 17 16 15 16 18 19 20 21 20 20 19 19 19 20 20 19 18 17 17 17 16 16 15 15 15 15 15 15 14 15 14 14 14 14 14 14 14 14 15 15 15 15 16 17 18 18 18 18 16 15 15
18 19 19 18 18 18 17 16 16 17 17 15 13 10 9 10 11 11 11 12 13 13 12 13 14 13 11 9 10 13 16 18 17 16 16 16 16 17 17 18 20 21 21 20 19 19 20 20 20 19 19 19 19 19 19 18 17 17 16 16 17 17 18 18 18 18 19 19 19 20 20 19 19 20 19 18 18 19 20 20 20 20 20 19 18
17 17 17 17 18 20 20 18 16 16 15 14 14 12 10 10 12 12 11 13 14 12 12 14 15 12 9 11 13 13 15 15 14 14 15 17 19 19 17 16 18 21 21 20 19 19 19 20 20 21 21 22 22 21 21 19 18 18 17 17 18 19 20 20 20 20 21 21 22 23 23 23 23 23 24 23 22 22 22 22 21 21 22 22 23
14 14 16 17 18 19 19 19 19 20 19 19 19 19 18 17 17 16 14 14 14 11 10 13 13 10 11 11 12 14 15 15 15 15 15 14 17 20 18 16 17 19 20 19 19 20 21 22 23 23 24 24 24 24 23 22 22 21 20 20 20 21 21 21 21 20 20 20 21 22 23 23 23 24 26 27 26 25 23 22 21 21 21 22 23
16 17 18 19 20 21 21 22 22 21 21 22 21 20 19 19 18 16 14 14 14 10 10 13 13 10 8 11 12 13 16 16 16 16 15 14 16 20 21 18 17 18 19 19 20 22 23 24 25 25 25 26 26 25 25 25 24 24 23 23 22 22 22 21 21 20 19 18 19 20 22 23 24 26 28 29 28 26 24 24 23 22 22 22 23
20 19 19 20 21 22 23 23 23 22 21 21 21 20 19 18 18 17 15 16 15 13 13 16 15 11 12 15 16 16 17 17 16 16 16 16 17 18 18 18 18 18 19 20 21 23 24 25 25 26 26 26 26 26 26 26 26 26 25 25 24 23 23 22 21 21 20 20 20 21 23 25 26 28 29 30 29 27 27 28 29 28 27 27 27
20 20 21 20 20 21 22 22 22 23 23 22 22 22 20 19 18 18 17 17 17 17 16 17 16 15 16 19 19 19 19 18 18 18 17 17 19 20 19 21 23 22 21 21 21 22 24 25 26 27 27 27 27 27 27 27 27 28 27 27 26 25 24 24 23 24 24 24 24 24 26 28 29 30 30 31 31 31 32 33 33 32 31 31 32
23 22 21 19 18 20 22 21 21 21 22 23 23 22 22 21 21 21 21 20 20 19 18 18 19 19 20 20 21 22 22 22 22 22 22 22 24 25 25 25 25 22 22 22 23 24 25 26 28 29 30 30 30 30 30 31 31 31 31 30 29 28 27 26 26 26 26 27 27 29 31 33 33 32 31 32 33 34 35 36 36 35 35 35 36
27 25 22 19 19 20 20 19 20 20 21 21 22 22 23 22 22 23 23 23 23 23 22 22 22 23 23 24 25 25 25 25 24 23 24 25 26 27 27 26 26 25 25 26 27 27 28 29 30 31 32 33 33 34 34 35 35 34 34 33 33 32 31 30 29 29 29 29 31 32 35 35 34 34 34 34 34 36 37 39 39 38 38 38 38
29 27 25 24 24 24 21 19 20 21 22 22 22 23 22 21 21 23 25 25 24 24 26 26 26 27 27 26 27 28 28 28 27 27 27 27 28 28 28 28 29 30 31 32 32 32 32 32 33 33 34 35 36 37 37 38 39 38 38 38 37 36 35 33 32 32 32 32 33 34 35 35 34 34 35 35 35 37 39 40 40 39 39 40 41
28 27 27 27 27 27 27 27 27 26 25 25 25 26 25 24 24 26 27 27 26 26 27 29 30 30 30 30 30 30 30 30 31 31 31 31 32 31 31 31 32 33 34 35 36 36 37 36 36 36 37 38 39 40 41 42 43 43 43 43 43 41 39 38 37 36 35 35 35 35 35 34 35 36 37 37 39 40 41 41 42 42 43 43 44
27 28 28 29 29 30 31 32 33 34 34 33 32 32 31 30 29 29 29 29 28 28 30 32 34 35 36 36 35 35 34 34 35 35 35 35 35 35 35 35 36 36 37 38 39 39 40 40 40 41 41 41 42 44 45 46 47 48 48 49 48 47 45 43 41 40 39 38 38 38 38 38 39 40 41 43 44 44 43 44 46 47 46 46 45
31 30 30 30 31 32 33 34 35 36 37 37 37 36 37 36 35 34 33 33 32 31 32 34 36 38 39 40 40 40 39 39 39 39 39 39 39 39 39 39 39 40 40 40 41 42 43 43 44 44 45 45 46 48 49 51 51 51 51 52 52 51 49 49 47 44 42 42 42 42 42 42 42 43 45 46 47 46 46 48 49 50 50 48 47
36 35 33 33 32 33 34 35 36 37 38 38 39 39 40 40 40 39 39 39 37 34 33 33 32 32 33 34 35 37 38 40 41 42 43 43 43 44 43 43 43 43 43 43 43 44 45 46 47 48 48 49 50 50 51 53 54 53 52 52 53 52 52 52 51 48 46 47 48 48 47 46 46 46 46 48 48 47 47 49 52 52 51 50 48
36 36 36 36 36 35 35 36 37 38 39 39 40 40 41 41 42 42 42 42 41 40 39 38 35 34 34 34 34 35 36 37 39 40 41 42 43 44 43 43 44 45 45 46 47 47 48 48 49 50 50 50 51 51 50 51 52 53 53 53 53 53 53 53 53 53 53 54 53 52 52 51 49 47 47 48 49 48 48 51 53 51 49 48 47
31 32 33 34 35 35 36 36 37 38 39 40 41 42 43 43 43 44 44 44 44 44 44 44 43 43 43 43 43 43 43 42 42 42 42 42 42 43 43 43 44 45 45 46 47 48 48 48 48 49 50 49 49 49 49 49 50 51 53 54 55 55 56 56 57 58 59 58 56 54 53 52 51 51 50 49 48 48 48 49 49 46 44 45 45
30 30 30 31 32 33 33 34 34 35 36 38 39 40 42 43 43 44 45 46 46 46 47 47 47 47 47 47 46 46 46 46 46 46 45 45 45 46 46 47 48 48 49 50 50 50 50 50 50 50 52 52 52 52 52 52 52 53 55 56 57 58 60 60 61 61 61 61 59 56 54 54 54 53 52 50 50 50 48 46 46 47 46 46 46
32 32 31 32 32 33 33 34 34 35 35 36 37 37 38 40 41 42 43 44 45 45 46 46 46 46 46 45 45 45 45 45 45 45 46 46 46 47 48 49 50 51 52 53 53 54 55 55 56 56 56 57 58 58 58 58 58 59 60 61 61 61 62 63 63 63 62 61 59 57 55 55 54 53 52 52 52 51 50 49 49 50 50 48 47
34 34 34 34 34 35 35 35 36 36 37 37 38 38 39 39 40 41 42 43 44 45 45 45 45 45 45 45 45 45 45 45 45 46 46 47 47 48 48 49 50 51 52 53 54 55 55 56 57 58 58 59 60 61 61 61 62 62 63 64 64 63 63 63 63 62 62 61 60 59 58 57 55 53 52 53 53 53 52 51 50 50 51 50 48
36 36 36 35 36 36 36 36 37 37 38 39 39 40 41 42 42 43 45 45 46 46 46 47 47 47 47 46 46 47 47 47 48 48 49 49 49 50 50 51 52 53 54 55 56 57 58 58 59 59 60 61 61 62 63 63 63 64 64 64 65 65 64 63 62 62 62 62 62 61 60 58 56 54 53 51 49 49 49 48 49 51 53 54 53
38 38 38 38 38 38 38 38 39 39 40 40 41 42 43 44 45 46 46 47 47 48 48 48 49 49 49 49 49 49 50 50 51 51 52 52 53 54 55 56 57 58 59 59 60 60 61 61 62 62 62 63 63 64 65 66 66 66 66 66 66 66 65 63 61 61 62 63 63 62 61 58 57 55 53 50 48 48 48 47 47 51 54 55 56
39 39 40 40 41 42 42 41 41 42 43 43 44 45 45 46 46 47 47 48 48 49 49 50 50 51 51 51 51 52 53 54 55 55 56 57 58 59 60 61 61 62 62 62 62 63 63 63 64 64 64 64 65 66 67 68 68 68 69 69 68 68 65 61 57 57 59 60 59 58 57 56 56 55 53 52 51 52 51 48 47 51 53 55 56
40 40 41 43 44 44 44 44 45 45 46 46 47 47 48 48 49 49 49 50 50 51 51 52 52 53 53 54 54 55 56 57 58 59 60 61 62 63 63 64 65 65 65 65 65 65 66 66 66 66 67 66 66 66 67 68 68 68 68 68 68 67 65 58 53 54 57 58 57 55 53 53 53 52 52 51 50 49 49 47 48 51 54 56 58
43 43 44 45 46 47 47 47 48 49 49 50 50 51 51 51 52 52 52 52 53 53 54 54 55 55 56 57 57 58 59 60 61 61 62 63 64 65 66 66 66 67 67 67 67 67 66 66 66 66 66 66 65 64 64 65 65 65 65 65 65 64 63 60 58 59 61 61 59 57 56 54 51 48 48 48 48 48 48 48 49 53 57 59 57
47 47 47 47 48 48 48 49 49 50 50 51 52 52 53 54 54 55 55 55 56 56 57 57 58 59 59 60 61 61 62 63 63 64 64 65 65 66 67 67 67 67 67 66 66 66 65 64 63 63 62 62 62 61 61 61 61 61 60 60 60 61 61 60 61 62 61 60 59 58 57 56 52 49 47 44 43 45 48 51 52 55 58 55 48
Wind_Direction
243 241 238 237 241 249 259 262 261 264 272 276 270 264 258 258 256 251 248 244 236 227 225 228 227 226 224 216 219 232 249 255 273 302 293 272 272 276 278 274 276 279 276 273 268 264 260 255 251 246 246 245 247 250 250 250 244 229 229 239 255 274 275 251 244 254 253 235 216 210 204 213 236 239 240 240 227 231 243 247 244 234 234 237 237
245 238 239 247 258 270 277 275 274 274 274 278 278 263 248 252 256 254 250 242 234 228 225 225 222 223 225 224 227 233 244 253 266 285 285 277 276 273 274 270 269 274 272 268 264 261 259 255 250 244 240 236 237 242 244 243 237 229 228 237 248 256 261 257 229 244 262 253 234 226 221 223 233 230 229 239 242 243 252 260 253 243 242 238 232
242 240 252 270 282 289 291 287 290 286 275 270 266 257 250 247 251 260 258 246 240 232 227 225 223 224 229 231 237 244 251 258 266 274 276 276 276 272 270 267 266 267 264 261 258 257 255 253 248 240 234 230 229 233 238 239 234 231 233 239 247 249 253 257 248 266 268 257 243 232 235 244 251 242 226 223 234 242 248 254 251 244 240 233 228
251 258 273 283 286 291 291 284 284 290 286 274 257 250 250 246 254 272 268 257 249 237 228 226 226 227 232 236 243 248 253 264 267 264 267 279 286 280 273 268 260 255 251 249 247 247 244 240 236 232 229 226 223 225 231 238 235 228 230 238 247 252 257 261 261 265 264 258 242 229 234 245 252 249 236 224 229 237 237 237 240 239 235 231 227
267 277 285 287 286 289 290 285 285 289 293 288 271 260 259 258 264 269 266 259 249 239 233 229 228 228 229 230 235 239 248 260 258 247 255 279 286 281 276 270 258 246 240 237 233 232 230 225 224 224 226 226 223 221 222 228 230 225 224 231 244 253 261 268 269 263 263 262 251 237 231 231 237 240 237 234 233 232 230 231 236 240 238 233 227
275 281 284 286 287 288 287 288 290 291 290 290 291 286 274 262 255 249 254 258 247 240 234 227 225 226 223 221 224 227 235 242 234 232 254 277 283 282 279 273 260 244 235 230 224 223 223 221 220 223 226 227 227 226 223 223 223 225 229 233 242 253 262 272 274 267 264 263 260 253 236 228 235 239 232 229 232 231 231 235 238 235 232 231 229
275 279 281 283 286 289 286 285 287 290 292 292 294 296 284 265 253 247 250 253 246 235 225 219 220 222 221 222 223 224 230 236 235 241 256 269 275 276 275 269 258 243 233 227 225 226 228 232 235 236 235 235 235 233 230 228 226 229 234 240 250 263 270 273 274 273 270 266 266 263 247 239 247 252 244 235 236 239 241 244 240 231 231 236 238
276 278 278 278 283 287 283 282 282 285 292 294 294 295 285 269 256 248 243 242 235 221 211 212 217 220 220 219 219 218 222 232 242 243 242 251 264 265 264 261 254 245 237 229 225 224 227 236 242 246 244 242 241 238 235 233 232 234 238 242 250 262 271 274 275 276 275 270 268 264 253 251 258 263 259 250 244 246 251 253 249 243 242 244 245
274 276 277 278 283 285 280 280 283 283 287 292 296 295 284 267 256 247 239 232 220 207 199 202 208 212 212 208 207 205 209 225 237 235 224 232 250 252 249 247 243 239 235 230 226 223 225 232 237 242 242 241 242 242 241 239 237 236 238 242 247 254 262 268 271 275 277 274 271 267 256 253 257 259 260 256 251 252 255 254 254 255 253 251 249
272 276 282 284 286 284 281 283 285 283 284 291 295 289 269 279 294 266 243 232 219 207 192 184 188 196 199 200 201 200 206 221 226 219 212 220 234 239 237 232 226 223 224 228 230 231 234 238 239 240 241 242 243 244 246 247 245 242 241 241 242 247 254 259 263 267 269 270 270 269 259 247 246 249 253 254 254 254 253 250 249 252 251 250 248
273 281 286 286 286 284 282 284 286 285 287 290 281 255 253 290 306 274 237 228 219 208 188 170 165 174 190 197 194 190 200 212 209 201 200 210 221 227 226 220 219 222 225 230 232 233 240 245 244 241 240 243 244 246 247 248 250 249 248 248 247 247 249 253 256 258 259 261 263 263 257 245 242 245 248 250 251 251 249 248 251 250 244 244 246
276 282 282 281 282 281 279 280 285 287 286 284 272 259 269 290 290 236 220 214 213 206 190 173 160 152 173 189 181 179 195 211 204 196 196 204 213 216 215 214 222 230 232 235 233 231 239 247 246 239 235 236 238 241 242 242 245 247 249 252 254 252 251 253 254 254 253 253 255 256 252 244 241 243 246 247 248 249 248 249 253 248 239 238 244
277 280 279 280 281 278 276 277 280 283 278 274 274 275 280 276 195 217 229 225 223 211 198 191 181 162 157 170 173 177 194 205 201 200 202 208 213 211 208 209 221 234 240 241 236 231 238 247 249 242 233 229 228 232 236 236 236 236 235 238 245 250 254 256 258 258 256 254 254 253 249 244 243 243 242 243 246 247 248 249 248 245 240 239 242
278 278 276 279 279 275 277 278 277 274 269 269 272 274 268 242 221 263 264 240 223 208 204 208 203 183 169 174 185 194 208 212 210 211 212 217 218 214 211 211 217 228 237 240 235 231 237 245 250 250 242 235 231 234 238 237 235 235 232 228 230 236 244 252 258 262 261 260 259 255 252 246 244 246 243 240 242 241 241 242 239 238 238 238 240
274 274 273 275 274 275 280 281 277 268 257 261 263 258 253 240 238 261 251 222 212 208 213 219 211 194 181 186 199 210 220 224 224 224 221 223 225 221 219 219 219 223 231 235 232 231 237 244 252 254 249 243 235 235 239 239 238 241 240 235 229 228 232 237 245 252 255 259 260 258 257 248 242 249 248 241 242 240 237 236 234 233 234 236 239
272 273 272 272 274 278 281 280 277 267 249 248 247 239 236 231 239 256 222 192 196 209 218 220 215 205 195 194 203 213 222 226 227 227 225 224 227 227 226 225 225 224 228 233 231 232 240 249 256 256 252 246 235 233 237 236 235 238 242 241 237 233 232 230 232 237 241 247 251 253 256 250 245 249 247 241 244 243 237 234 232 230 232 235 239
269 270 270 273 278 280 278 273 269 259 243 236 232 227 233 232 229 245 211 182 181 196 210 217 215 211 208 202 198 207 221 229 228 224 221 223 226 230 231 231 231 228 229 235 234 234 243 254 259 259 256 252 242 235 235 232 228 228 232 237 238 236 236 234 233 234 235 239 243 245 247 248 247 246 242 239 242 241 236 233 230 230 233 236 239
262 267 269 276 281 281 276 268 259 247 234 226 223 222 226 219 208 219 210 189 183 190 199 210 217 220 223 219 213 220 234 239 232 221 218 220 224 229 235 238 237 235 235 238 236 237 246 255 260 263 262 259 253 244 239 236 229 221 223 231 237 241 241 241 240 241 242 242 243 244 244 245 244 242 239 237 236 234 233 232 231 234 236 236 237
255 262 266 272 275 278 279 268 247 230 222 218 212 206 205 215 221 227 216 201 197 197 200 208 218 223 233 237 235 240 243 237 231 226 224 225 226 230 234 238 240 240 239 238 236 237 247 257 263 266 268 266 263 259 255 250 240 228 227 233 240 247 249 249 248 247 247 246 245 244 243 241 239 237 234 232 231 230 228 227 230 234 237 238 238
252 257 260 264 265 268 273 258 228 216 216 212 204 200 203 216 226 233 234 223 214 210 213 218 220 223 235 247 249 248 242 231 226 228 229 230 232 233 235 238 241 241 238 236 233 234 243 255 263 269 273 273 273 271 267 263 254 241 236 238 244 249 252 253 252 249 246 242 239 238 235 232 230 228 227 226 226 228 228 229 233 237 241 243 244
255 255 255 258 260 260 258 240 220 217 219 213 207 213 228 236 231 229 231 222 214 219 240 240 234 231 234 243 249 248 242 234 230 233 237 239 239 238 238 239 240 239 236 233 232 233 239 249 259 268 275 277 277 275 273 273 269 259 250 248 248 249 251 252 251 250 246 242 238 235 232 228 226 226 225 226 228 231 233 233 235 239 242 244 246
253 251 254 259 256 250 241 224 215 214 214 215 219 230 239 227 209 206 208 209 217 237 253 249 241 236 236 241 245 245 243 239 238 241 245 247 246 244 245 244 241 236 233 230 232 236 241 246 254 265 272 276 277 276 276 277 277 273 266 260 255 252 252 252 251 250 249 248 246 244 241 238 236 236 236 236 237 236 236 235 235 238 241 242 245
246 245 250 251 244 242 232 214 211 216 223 233 234 232 229 211 205 221 234 233 241 250 249 246 242 240 244 248 246 245 246 245 245 248 250 251 249 247 250 249 241 234 232 234 241 246 248 248 252 260 268 272 275 275 274 274 276 278 275 270 264 259 256 254 251 250 251 252 253 251 249 245 243 243 243 244 244 241 241 242 242 242 244 245 247
246 244 243 241 239 239 224 207 212 224 233 240 238 237 239 230 229 241 249 249 250 248 245 244 243 245 249 250 247 247 253 256 257 259 257 252 247 244 245 244 237 235 241 248 252 252 250 248 248 255 263 268 271 271 268 266 269 271 269 267 265 261 257 255 251 251 251 251 251 250 248 245 244 245 244 244 247 249 251 252 251 251 251 252 251
248 244 239 238 237 232 223 225 237 241 240 243 248 254 255 248 247 252 253 250 245 243 246 244 245 251 249 245 242 243 251 255 254 258 257 247 241 238 235 238 240 243 248 253 256 256 251 247 247 251 258 264 266 265 262 259 259 259 258 257 255 252 250 250 252 253 253 253 254 253 251 249 251 254 257 261 264 268 269 265 262 262 262 263 264
251 245 238 238 239 236 238 248 255 255 254 254 259 265 265 261 262 263 259 252 244 245 251 245 247 254 247 240 239 243 252 247 238 249 258 250 245 239 231 235 243 247 251 252 254 255 252 249 248 250 256 260 261 260 258 255 251 249 249 249 249 248 248 251 254 257 261 264 266 269 271 272 274 278 283 288 289 289 288 285 283 281 279 278 277
251 247 243 242 241 240 246 254 256 256 258 260 263 264 260 256 258 259 257 253 248 246 243 236 237 238 232 234 238 243 252 248 239 249 256 251 250 245 236 238 243 246 250 251 250 250 249 249 249 252 256 258 259 259 256 253 250 250 252 253 254 255 256 259 263 268 273 276 277 281 285 287 288 289 291 294 295 294 294 294 294 295 294 291 288
253 250 248 244 239 236 238 242 248 252 254 252 246 241 239 232 232 241 247 244 240 236 234 231 224 216 219 243 253 241 238 240 241 251 256 253 250 244 239 243 246 245 246 245 244 244 246 248 250 252 254 254 255 255 254 254 254 255 256 258 258 261 264 267 272 278 283 286 287 289 291 291 291 291 291 290 289 289 290 291 292 295 296 295 293
253 248 246 242 239 235 230 233 248 261 257 243 232 234 243 234 231 243 248 237 232 235 236 221 209 213 242 260 259 240 223 226 240 254 260 256 247 239 237 243 246 244 241 240 242 244 246 249 251 251 252 253 253 253 253 254 254 254 255 256 259 263 267 272 277 282 287 291 292 292 291 290 290 290 291 291 291 290 288 286 286 288 291 294 295
249 242 241 242 244 243 242 247 259 263 255 247 243 246 250 248 248 252 248 238 239 248 236 213 215 248 267 246 231 229 229 239 252 255 256 255 244 237 237 243 248 246 242 240 242 245 247 249 251 253 254 254 254 254 254 253 253 253 253 255 258 262 266 271 277 283 290 294 295 292 290 289 291 293 295 295 295 295 292 289 287 287 289 291 293
248 244 244 246 250 252 254 257 260 259 253 250 249 248 246 246 248 249 245 243 250 253 235 227 239 257 239 212 215 232 246 257 258 249 251 262 256 242 239 247 254 252 248 245 242 243 247 249 252 254 254 255 255 254 254 254 253 254 254 254 256 259 264 270 276 282 288 291 290 289 288 291 294 296 296 295 294 293 292 291 291 291 291 291 291
244 244 246 247 250 253 255 256 255 254 252 250 251 252 249 246 245 245 247 249 251 247 236 238 244 232 214 218 231 239 246 253 252 246 251 260 257 246 242 252 263 261 254 251 248 246 247 249 251 253 254 255 255 255 256 256 256 257 257 257 259 261 264 268 273 277 280 282 282 283 286 289 291 293 293 293 291 290 290 291 292 291 290 290 291
244 244 245 246 250 256 258 260 260 261 260 257 256 258 259 260 258 255 253 252 253 253 250 251 250 241 234 237 241 241 238 238 239 241 245 246 245 248 253 262 270 264 249 246 250 250 249 250 250 252 254 254 255 255 255 257 258 259 259 260 261 262 263 265 268 271 274 276 279 281 284 287 288 289 289 288 288 288 289 289 290 289 287 287 289
250 250 251 250 251 254 256 260 263 267 272 271 266 264 263 263 263 261 258 257 257 258 259 261 260 256 252 250 251 250 247 243 241 241 242 243 244 250 255 259 264 257 243 243 250 249 248 250 251 252 253 254 255 256 257 258 260 261 261 261 261 261 261 263 265 268 271 275 278 281 284 286 287 287 285 284 285 287 287 288 288 287 285 286 288
252 253 252 245 242 245 251 258 257 253 256 263 268 271 271 270 271 270 265 261 259 258 258 261 263 263 261 258 257 258 258 258 257 255 255 254 253 255 257 257 258 256 253 255 257 253 251 251 252 254 255 256 257 258 259 260 261 262 261 261 261 261 260 261 264 266 270 274 278 283 286 287 287 285 283 282 283 284 285 286 285 284 283 285 286
251 251 247 241 239 239 240 244 244 240 241 247 257 264 266 269 272 273 271 268 266 263 259 260 263 263 262 260 259 261 264 264 264 264 263 262 260 260 261 260 260 260 261 262 261 260 258 255 255 257 258 259 260 260 261 262 262 262 262 262 261 260 260 260 262 264 267 272 278 283 286 285 283 282 281 282 283 284 285 284 282 281 283 285 286
247 247 244 241 240 239 238 237 237 240 243 247 251 253 252 252 255 261 266 269 270 266 261 262 265 266 265 263 262 262 263 263 262 262 262 261 261 261 261 261 260 259 260 259 259 259 259 257 257 258 259 260 262 263 264 264 263 263 263 263 262 261 259 259 260 261 263 269 276 281 283 281 278 278 279 281 283 286 286 283 281 282 285 285 283
248 249 246 242 240 239 240 240 241 244 248 250 251 251 250 251 253 255 258 262 264 263 262 264 269 272 271 268 266 264 263 261 261 262 262 261 262 262 262 262 262 261 260 259 258 257 256 256 255 255 256 257 258 260 262 263 263 262 262 262 263 262 260 260 260 259 261 266 273 278 280 280 278 276 278 281 284 286 284 282 282 285 285 284 282
252 252 249 246 242 240 239 240 241 244 247 248 249 250 250 252 253 253 254 258 261 264 266 268 272 274 274 272 270 270 269 268 267 266 266 265 264 264 265 264 264 263 262 261 260 260 259 259 258 257 257 256 256 258 259 260 261 261 261 261 262 262 263 263 262 260 261 267 274 278 279 279 277 276 277 279 281 283 283 284 285 286 285 282 280
256 256 254 252 249 245 244 243 243 244 247 248 249 250 251 253 254 254 256 258 261 263 266 268 269 271 272 272 271 271 270 270 269 269 269 269 270 270 270 269 268 266 264 262 261 260 260 261 261 261 261 261 260 260 259 258 259 260 260 261 261 262 264 265 262 259 264 272 278 281 281 279 277 276 276 278 279 281 283 285 285 285 284 282 278
260 260 259 257 255 253 251 250 249 249 251 252 253 253 254 255 256 258 260 262 263 263 264 266 267 267 268 269 270 269 267 266 266 266 266 267 267 267 266 265 265 265 265 264 264 263 262 263 264 265 266 266 266 264 262 260 259 260 260 261 261 262 264 263 260 260 266 273 279 281 280 278 276 275 275 276 278 281 282 283 283 284 283 280 276
258 257 257 257 257 256 256 255 255 255 256 257 258 258 259 260 261 262 263 264 264 264 263 264 265 266 267 268 268 268 268 269 269 269 269 268 266 265 263 263 264 264 266 267 268 268 268 269 270 271 271 272 271 270 268 266 264 263 263 263 264 264 265 264 263 264 269 274 277 277 276 275 274 274 273 274 276 278 279 279 280 280 277 273 271
255 255 255 255 256 257 257 258 258 259 259 260 261 261 261 262 262 263 264 264 264 264 264 265 266 267 267 268 268 268 269 271 272 273 273 272 271 270 269 269 269 269 269 270 270 270 270 270 269 269 270 271 271 270 269 268 267 267 267 267 268 268 269 269 269 270 272 273 274 273 272 271 271 272 272 273 274 274 274 274 273 271 269 268 269
258 258 257 257 258 258 259 259 260 261 261 261 262 262 262 262 262 263 263 264 264 265 266 266 267 268 269 269 270 270 271 271 272 272 273 273 273 272 272 272 272 272 272 272 272 272 272 272 271 271 271 271 271 271 270 270 269 269 269 270 270 270 270 270 271 272 272 272 272 271 270 269 269 270 271 272 271 271 271 270 269 268 267 266 266
261 261 260 259 259 259 259 260 260 261 262 263 263 263 263 263 263 264 264 264 265 266 267 268 269 269 270 271 271 272 272 272 272 272 272 272 273 273 273 274 274 274 274 274 274 274 273 273 273 273 273 273 273 272 271 271 270 269 269 270 270 270 270 271 271 272 272 272 271 270 269 268 268 268 268 269 270 271 269 266 263 264 265 263 262
261 261 260 259 259 258 258 259 259 261 262 263 263 264 264 265 265 266 266 267 268 269 270 270 271 271 272 272 273 273 273 272 272 272 272 272 272 272 273 273 274 274 274 273 273 273 273 273 272 272 272 272 272 272 271 271 270 270 269 269 269 270 271 271 271 272 272 271 270 270 269 269 268 267 266 267 267 266 264 260 257 256 258 259 258
261 261 261 261 259 258 257 257 258 259 260 261 263 263 264 265 266 267 268 269 270 270 271 271 272 273 273 273 274 274 275 275 275 275 275 274 275 275 275 276 276 276 275 275 274 274 273 273 272 272 271 271 271 271 271 271 271 271 270 270 270 271 271 271 272 272 271 270 270 270 269 269 268 266 265 263 260 258 259 260 259 257 257 257 258
259 260 261 261 260 259 258 259 259 259 259 260 261 262 263 264 265 266 267 268 269 270 270 271 272 272 273 274 275 277 277 278 278 278 279 279 280 280 281 281 281 280 279 278 278 277 276 276 275 274 273 272 272 271 271 271 271 271 272 272 272 272 272 273 272 271 270 269 268 268 268 268 267 265 263 260 257 256 257 258 258 258 258 259 259
259 259 260 260 260 260 261 261 261 262 262 263 264 265 265 266 266 267 268 268 269 270 270 271 272 273 273 274 275 276 277 278 279 279 280 281 281 282 283 282 282 281 281 280 280 280 279 278 277 277 276 275 274 273 272 272 271 271 271 271 271 271 271 269 265 263 263 265 266 266 266 266 265 264 263 260 256 255 256 254 251 253 257 259 259
260 260 260 260 261 261 261 262 263 264 265 266 267 268 269 269 270 270 271 271 271 271 272 272 272 273 273 274 275 276 277 278 279 279 280 281 281 282 282 281 281 281 280 280 279 279 279 278 278 277 277 276 275 274 273 273 272 271 270 269 269 268 267 265 261 258 258 261 263 264 264 265 265 264 263 261 257 254 254 252 251 253 256 255 252
261 261 261 261 262 262 263 264 264 265 266 266 267 268 268 269 269 270 270 270 271 271 272 273 273 274 275 275 277 278 278 279 279 280 280 280 281 281 280 280 279 279 279 279 278 277 277 277 277 277 276 276 275 274 272 271 271 270 269 268 266 265 264 263 262 261 261 261 262 262 262 263 264 264 263 260 256 251 250 251 252 251 249 246 244
Height
5777 5778 5777 5777 5776 5775 5776 5778 5778 5776 5778 5781 5782 5783 5784 5783 5782 5783 5785 5787 5788 5789 5789 5789 5789 5790 5790 5791 5792 5793 5793 5794 5795 5796 5796 5797 5797 5797 5798 5798 5798 5798 5798 5798 5798 5798 5798 5799 5799 5798 5798 5798 5798 5797 5797 5797 5797 5797 5797 5796 5795 5794 5794 5795 5795 5795 5795 5795 5796 5796 5796 5797 5798 5798 5799 5799 5800 5801 5801 5801 5801 5802 5802 5802 5802
5773 5773 5773 5775 5777 5777 5777 5776 5775 5775 5776 5778 5780 5780 5781 5780 5780 5781 5783 5784 5786 5786 5786 5786 5787 5788 5788 5789 5790 5791 5792 5793 5793 5794 5795 5795 5796 5796 5796 5796 5796 5796 5796 5797 5797 5797 5797 5797 5797 5797 5797 5797 5797 5796 5796 5796 5796 5796 5796 5795 5794 5793 5792 5793 5794 5795 5795 5795 5796 5796 5796 5796 5797 5798 5799 5799 5799 5800 5800 5800 5801 5801 5801 5801 5801
5769 5770 5772 5773 5774 5773 5772 5771 5772 5773 5772 5774 5776 5777 5778 5778 5779 5780 5781 5783 5783 5783 5784 5785 5785 5786 5787 5787 5788 5789 5790 5791 5792 5793 5793 5794 5794 5794 5795 5795 5795 5795 5795 5795 5795 5795 5795 5796 5796 5796 5796 5796 5795 5795 5795 5795 5795 5795 5795 5794 5793 5792 5791 5791 5792 5793 5794 5794 5795 5795 5795 5795 5796 5797 5799 5799 5798 5798 5799 5800 5800 5800 5800 5800 5800
5767 5769 5771 5771 5770 5769 5770 5769 5769 5770 5771 5771 5773 5775 5776 5777 5778 5779 5780 5780 5781 5781 5782 5783 5784 5785 5786 5786 5787 5788 5789 5789 5790 5791 5791 5792 5793 5793 5793 5794 5794 5794 5794 5794 5794 5794 5794 5794 5795 5795 5795 5795 5795 5794 5794 5794 5794 5794 5793 5793 5792 5791 5790 5790 5791 5792 5792 5793 5794 5794 5794 5794 5795 5796 5797 5797 5797 5797 5798 5799 5799 5799 5799 5799 5799
5766 5769 5770 5769 5769 5768 5768 5768 5767 5768 5770 5769 5771 5773 5775 5775 5776 5777 5777 5777 5778 5779 5780 5782 5783 5784 5785 5785 5786 5787 5787 5788 5788 5789 5789 5790 5791 5791 5792 5792 5792 5792 5792 5792 5792 5792 5793 5793 5793 5794 5794 5794 5794 5794 5793 5793 5793 5793 5792 5791 5790 5789 5789 5789 5790 5791 5791 5792 5792 5794 5794 5794 5794 5795 5796 5796 5796 5797 5798 5799 5799 5799 5799 5798 5798
5766 5767 5766 5766 5768 5767 5766 5766 5766 5766 5767 5768 5769 5771 5772 5773 5774 5775 5775 5775 5776 5777 5778 5780 5781 5782 5783 5784 5785 5785 5785 5786 5787 5787 5788 5788 5789 5790 5790 5790 5790 5790 5790 5790 5791 5791 5791 5792 5792 5792 5792 5793 5793 5792 5792 5792 5792 5791 5791 5790 5789 5788 5788 5788 5788 5790 5791 5791 5791 5792 5793 5793 5794 5795 5795 5795 5796 5797 5797 5798 5798 5799 5798 5798 5798
5764 5764 5764 5764 5766 5766 5765 5764 5765 5765 5765 5765 5767 5768 5769 5770 5770 5771 5772 5773 5774 5775 5776 5778 5779 5780 5781 5782 5782 5783 5784 5784 5785 5786 5786 5787 5787 5788 5789 5789 5788 5788 5789 5789 5789 5789 5790 5790 5790 5791 5791 5791 5791 5791 5791 5791 5790 5790 5789 5789 5788 5787 5787 5787 5787 5788 5789 5790 5790 5791 5791 5792 5792 5793 5793 5794 5794 5795 5796 5796 5796 5797 5798 5797 5797
5762 5762 5761 5762 5763 5764 5763 5763 5764 5764 5764 5764 5765 5765 5766 5767 5767 5768 5769 5770 5772 5773 5774 5775 5776 5777 5778 5779 5780 5781 5781 5782 5783 5784 5784 5785 5787 5788 5788 5788 5788 5787 5787 5787 5788 5788 5789 5789 5789 5789 5790 5790 5790 5790 5789 5789 5788 5788 5787 5787 5787 5786 5786 5786 5786 5786 5787 5788 5788 5789 5789 5790 5790 5790 5791 5791 5792 5793 5793 5793 5794 5795 5796 5796 5796
5760 5761 5760 5760 5760 5761 5762 5762 5762 5763 5763 5763 5763 5763 5763 5764 5765 5766 5767 5768 5769 5770 5771 5772 5773 5774 5775 5776 5777 5778 5779 5779 5780 5781 5782 5784 5786 5787 5788 5788 5787 5787 5786 5786 5786 5787 5787 5788 5788 5788 5788 5789 5788 5788 5787 5787 5786 5786 5785 5785 5786 5785 5785 5784 5784 5785 5785 5785 5786 5787 5787 5788 5788 5788 5789 5790 5790 5791 5791 5792 5792 5793 5794 5794 5794
5758 5758 5758 5757 5758 5759 5760 5761 5761 5762 5762 5761 5762 5762 5762 5763 5764 5765 5766 5766 5767 5768 5769 5769 5770 5771 5772 5773 5774 5775 5776 5777 5778 5779 5780 5782 5784 5785 5786 5787 5787 5787 5786 5785 5785 5785 5785 5786 5786 5786 5786 5786 5786 5786 5785 5785 5784 5784 5783 5783 5784 5784 5783 5783 5783 5783 5783 5783 5783 5784 5785 5786 5786 5786 5787 5788 5789 5789 5789 5790 5791 5792 5792 5792 5792
5755 5756 5756 5756 5756 5757 5757 5759 5760 5760 5760 5759 5760 5761 5761 5762 5762 5763 5763 5764 5766 5766 5767 5768 5769 5770 5771 5771 5772 5774 5775 5775 5776 5777 5778 5780 5781 5783 5784 5786 5786 5786 5785 5784 5784 5783 5783 5783 5784 5784 5784 5784 5783 5783 5783 5783 5782 5781 5781 5781 5782 5782 5782 5782 5781 5781 5781 5781 5781 5782 5783 5784 5784 5785 5785 5786 5787 5787 5787 5788 5789 5790 5790 5790 5790
5754 5754 5754 5754 5754 5754 5755 5756 5757 5758 5758 5758 5759 5760 5761 5760 5760 5761 5762 5763 5764 5765 5766 5767 5768 5768 5769 5769 5770 5772 5773 5774 5775 5775 5776 5777 5779 5780 5782 5784 5784 5784 5784 5783 5782 5782 5782 5781 5781 5782 5781 5781 5781 5781 5781 5781 5781 5780 5779 5779 5779 5780 5781 5780 5780 5780 5780 5780 5779 5780 5781 5782 5782 5783 5783 5784 5784 5785 5785 5786 5787 5788 5788 5788 5788
5752 5752 5752 5752 5752 5752 5753 5754 5755 5755 5756 5757 5758 5759 5760 5760 5760 5761 5762 5763 5764 5764 5765 5765 5766 5767 5767 5768 5769 5770 5772 5773 5774 5774 5775 5776 5777 5778 5780 5781 5782 5782 5782 5782 5781 5781 5781 5781 5780 5780 5780 5779 5779 5779 5779 5780 5780 5779 5778 5777 5778 5778 5779 5779 5779 5779 5779 5778 5778 5778 5779 5780 5780 5780 5781 5782 5782 5783 5783 5784 5785 5786 5786 5785 5785
5750 5750 5750 5750 5750 5750 5750 5751 5752 5754 5754 5755 5757 5758 5759 5759 5760 5760 5761 5762 5762 5763 5763 5764 5765 5765 5765 5766 5767 5769 5770 5771 5772 5773 5773 5774 5775 5776 5777 5778 5779 5779 5780 5780 5780 5780 5780 5780 5779 5779 5778 5778 5778 5778 5778 5778 5778 5778 5777 5777 5777 5777 5777 5778 5778 5778 5778 5777 5777 5776 5777 5778 5778 5778 5779 5780 5780 5781 5781 5782 5783 5783 5783 5783 5783
5748 5748 5748 5748 5748 5748 5748 5749 5751 5752 5753 5754 5756 5757 5758 5758 5758 5759 5759 5760 5760 5761 5762 5762 5763 5763 5764 5765 5766 5767 5768 5769 5770 5771 5771 5772 5773 5774 5775 5776 5777 5777 5777 5777 5778 5778 5778 5778 5778 5777 5777 5777 5777 5777 5777 5778 5778 5777 5777 5777 5777 5776 5776 5776 5777 5777 5777 5777 5776 5776 5776 5777 5777 5777 5778 5778 5779 5779 5780 5781 5781 5781 5780 5780 5780
5746 5746 5746 5746 5746 5746 5746 5748 5750 5751 5752 5753 5755 5755 5756 5756 5756 5757 5757 5758 5759 5759 5760 5761 5762 5763 5763 5764 5765 5766 5766 5767 5768 5768 5769 5770 5770 5771 5773 5774 5774 5775 5775 5775 5775 5776 5776 5776 5776 5776 5776 5776 5776 5776 5776 5776 5777 5777 5776 5776 5776 5776 5776 5776 5776 5776 5776 5776 5776 5775 5775 5776 5776 5776 5777 5777 5777 5778 5779 5779 5779 5778 5778 5778 5778
5744 5744 5744 5744 5744 5744 5745 5747 5748 5750 5751 5753 5753 5754 5754 5754 5755 5755 5756 5757 5757 5758 5759 5760 5762 5763 5763 5764 5764 5764 5765 5765 5765 5766 5766 5767 5768 5769 5771 5772 5772 5773 5773 5773 5773 5773 5774 5774 5775 5774 5774 5774 5774 5774 5774 5775 5775 5775 5775 5775 5776 5775 5775 5775 5775 5775 5775 5775 5775 5775 5775 5775 5775 5775 5775 5776 5776 5776 5777 5777 5776 5776 5776 5776 5777
5742 5742 5743 5743 5743 5742 5743 5744 5746 5748 5750 5752 5752 5753 5753 5753 5754 5754 5754 5756 5757 5758 5759 5760 5761 5762 5763 5763 5763 5763 5763 5762 5762 5763 5764 5765 5766 5767 5768 5769 5770 5770 5770 5771 5771 5771 5772 5772 5773 5773 5773 5772 5772 5772 5772 5772 5773 5773 5773 5774 5774 5774 5774 5774 5774 5774 5774 5774 5774 5774 5773 5774 5774 5774 5774 5774 5774 5774 5775 5775 5775 5774 5775 5775 5776
5739 5740 5741 5741 5741 5740 5740 5740 5742 5745 5748 5750 5751 5752 5752 5752 5753 5753 5753 5754 5755 5756 5757 5758 5759 5761 5761 5761 5761 5761 5761 5761 5760 5760 5761 5762 5763 5764 5765 5766 5767 5767 5768 5768 5768 5769 5770 5770 5771 5771 5771 5771 5771 5770 5770 5770 5770 5770 5771 5771 5772 5773 5773 5773 5773 5773 5773 5773 5773 5773 5773 5773 5774 5774 5774 5773 5773 5773 5773 5773 5773 5773 5773 5774 5774
5736 5737 5739 5738 5737 5737 5737 5737 5739 5742 5744 5746 5747 5748 5749 5750 5751 5751 5752 5752 5753 5754 5755 5755 5756 5758 5759 5759 5759 5759 5759 5759 5759 5759 5759 5760 5761 5761 5762 5763 5763 5764 5765 5765 5766 5766 5767 5768 5769 5769 5770 5770 5769 5769 5769 5768 5768 5768 5769 5770 5770 5771 5772 5772 5772 5772 5773 5773 5773 5772 5773 5773 5773 5773 5773 5773 5772 5772 5772 5772 5772 5772 5772 5772 5772
5733 5735 5736 5735 5734 5735 5735 5735 5736 5738 5740 5741 5743 5744 5745 5746 5747 5748 5750 5751 5752 5753 5753 5753 5754 5755 5756 5757 5757 5757 5757 5758 5758 5758 5758 5758 5758 5758 5759 5759 5760 5761 5761 5762 5763 5764 5765 5766 5766 5767 5768 5768 5768 5768 5767 5767 5767 5767 5767 5768 5768 5769 5770 5771 5771 5771 5771 5771 5772 5772 5772 5772 5772 5772 5772 5772 5771 5771 5772 5772 5772 5772 5771 5771 5770
5730 5732 5732 5732 5732 5732 5732 5734 5736 5737 5737 5738 5739 5740 5742 5743 5745 5746 5748 5749 5750 5751 5752 5752 5752 5752 5753 5754 5753 5753 5754 5755 5755 5755 5755 5756 5756 5756 5756 5757 5757 5758 5758 5759 5760 5761 5762 5763 5764 5765 5765 5766 5766 5766 5765 5765 5765 5765 5765 5766 5766 5767 5768 5769 5769 5770 5770 5770 5770 5770 5770 5770 5770 5770 5770 5770 5770 5770 5770 5770 5770 5770 5770 5769 5769
5726 5727 5729 5729 5729 5728 5730 5732 5735 5735 5735 5735 5736 5738 5739 5741 5742 5744 5746 5748 5749 5749 5750 5750 5750 5750 5751 5751 5751 5751 5751 5752 5753 5753 5753 5753 5754 5754 5754 5755 5755 5756 5756 5757 5758 5758 5759 5760 5761 5762 5763 5763 5763 5763 5763 5763 5763 5763 5764 5764 5764 5765 5765 5766 5767 5767 5768 5768 5768 5768 5768 5768 5768 5768 5768 5768 5768 5768 5768 5768 5768 5768 5768 5767 5767
5722 5724 5726 5726 5726 5726 5727 5730 5732 5733 5733 5733 5734 5735 5736 5738 5740 5741 5742 5744 5746 5747 5748 5748 5748 5748 5749 5749 5750 5751 5751 5751 5751 5751 5750 5750 5750 5751 5752 5753 5754 5754 5755 5755 5755 5756 5756 5757 5758 5759 5760 5761 5761 5761 5761 5761 5761 5761 5762 5762 5762 5763 5763 5764 5764 5765 5765 5766 5765 5765 5765 5765 5766 5766 5766 5766 5766 5766 5766 5766 5766 5765 5765 5765 5765
5721 5722 5723 5723 5724 5725 5726 5728 5730 5732 5732 5733 5733 5735 5736 5737 5739 5740 5740 5741 5742 5743 5744 5745 5745 5746 5746 5747 5748 5749 5749 5749 5748 5748 5747 5747 5747 5748 5749 5750 5751 5752 5752 5752 5753 5753 5754 5754 5755 5756 5757 5758 5758 5758 5759 5759 5759 5759 5760 5760 5761 5761 5761 5762 5762 5763 5763 5763 5763 5763 5763 5763 5764 5764 5764 5764 5764 5764 5764 5764 5763 5763 5763 5762 5762
5721 5721 5721 5722 5723 5724 5725 5726 5728 5729 5731 5732 5733 5734 5735 5736 5738 5739 5739 5740 5740 5740 5741 5742 5743 5743 5744 5745 5745 5745 5745 5745 5745 5745 5745 5745 5745 5746 5746 5747 5748 5748 5749 5749 5750 5750 5751 5752 5753 5753 5754 5755 5755 5756 5756 5756 5756 5757 5757 5758 5758 5759 5759 5760 5760 5760 5761 5761 5761 5761 5761 5761 5761 5761 5760 5761 5761 5761 5762 5762 5761 5761 5761 5760 5760
5720 5720 5721 5721 5722 5723 5724 5725 5725 5726 5728 5730 5731 5732 5732 5733 5734 5736 5737 5738 5738 5738 5739 5740 5741 5741 5742 5743 5743 5742 5742 5742 5742 5743 5743 5743 5743 5743 5744 5744 5745 5745 5746 5746 5747 5747 5748 5749 5750 5751 5751 5752 5753 5753 5754 5754 5754 5754 5755 5756 5756 5757 5757 5758 5758 5758 5758 5758 5759 5759 5759 5758 5758 5757 5757 5758 5758 5758 5758 5758 5758 5758 5757 5757 5757
5717 5718 5718 5719 5719 5720 5721 5722 5723 5724 5726 5727 5729 5729 5729 5730 5732 5733 5734 5735 5735 5736 5737 5738 5738 5738 5739 5740 5740 5740 5740 5740 5741 5742 5741 5741 5741 5741 5741 5741 5742 5742 5743 5743 5744 5744 5745 5746 5747 5748 5749 5749 5750 5750 5751 5751 5752 5752 5753 5753 5754 5754 5755 5755 5755 5755 5755 5755 5756 5756 5756 5755 5754 5754 5754 5754 5755 5755 5755 5755 5754 5754 5753 5753 5753
5713 5714 5715 5715 5716 5718 5719 5721 5722 5723 5724 5725 5726 5726 5727 5729 5729 5730 5731 5732 5733 5733 5734 5734 5735 5736 5737 5737 5737 5738 5738 5738 5739 5739 5738 5737 5737 5737 5738 5738 5739 5739 5740 5740 5741 5742 5743 5744 5744 5745 5746 5746 5747 5747 5747 5748 5749 5750 5750 5751 5751 5751 5752 5752 5752 5752 5752 5752 5752 5752 5751 5751 5751 5750 5750 5751 5751 5751 5751 5751 5751 5750 5749 5749 5748
5710 5711 5711 5712 5713 5715 5716 5718 5719 5720 5721 5722 5722 5723 5725 5726 5726 5727 5729 5729 5730 5731 5731 5732 5733 5734 5734 5734 5734 5735 5735 5735 5736 5735 5734 5734 5734 5735 5736 5736 5737 5737 5737 5738 5738 5739 5740 5741 5741 5742 5743 5743 5743 5744 5744 5745 5745 5746 5747 5747 5748 5748 5748 5749 5749 5749 5748 5748 5748 5748 5747 5747 5747 5747 5747 5747 5747 5748 5747 5747 5747 5747 5746 5745 5744
5707 5707 5707 5708 5709 5710 5712 5714 5715 5716 5717 5717 5718 5719 5721 5722 5723 5724 5725 5726 5727 5728 5729 5730 5730 5731 5731 5731 5732 5733 5732 5733 5733 5732 5732 5733 5732 5732 5733 5734 5734 5735 5735 5735 5736 5736 5737 5738 5738 5739 5739 5740 5740 5740 5741 5741 5742 5742 5743 5744 5744 5744 5745 5745 5745 5745 5745 5745 5745 5745 5744 5744 5744 5743 5743 5743 5743 5743 5743 5743 5742 5742 5742 5742 5742
5703 5703 5704 5705 5706 5707 5708 5709 5710 5711 5712 5713 5714 5715 5716 5718 5719 5720 5721 5722 5723 5724 5725 5726 5726 5727 5728 5728 5729 5730 5730 5730 5730 5730 5731 5731 5730 5730 5731 5731 5731 5731 5732 5733 5733 5734 5734 5735 5736 5736 5736 5736 5737 5737 5737 5738 5738 5739 5740 5740 5741 5741 5741 5742 5742 5742 5742 5742 5742 5742 5742 5741 5741 5741 5740 5739 5739 5739 5739 5738 5738 5738 5738 5738 5738
5700 5700 5701 5702 5704 5705 5705 5706 5707 5707 5708 5709 5710 5711 5712 5713 5715 5717 5718 5719 5720 5721 5722 5722 5723 5724 5725 5725 5725 5726 5726 5726 5727 5727 5728 5729 5729 5730 5731 5730 5729 5729 5730 5731 5731 5732 5732 5732 5733 5733 5733 5733 5733 5734 5734 5734 5735 5735 5736 5737 5737 5737 5738 5738 5739 5739 5739 5739 5739 5739 5739 5738 5738 5738 5737 5737 5736 5736 5735 5734 5734 5734 5733 5733 5733
5698 5698 5699 5701 5702 5702 5702 5703 5704 5705 5705 5705 5706 5708 5708 5709 5711 5713 5714 5715 5717 5718 5719 5719 5720 5720 5721 5721 5721 5722 5722 5722 5723 5724 5725 5726 5727 5727 5728 5728 5726 5726 5728 5729 5729 5729 5729 5730 5730 5730 5730 5730 5730 5730 5730 5731 5731 5731 5732 5732 5733 5733 5734 5734 5735 5735 5735 5735 5735 5735 5734 5734 5734 5734 5734 5733 5733 5732 5732 5731 5730 5730 5729 5729 5728
5696 5697 5698 5698 5699 5699 5700 5701 5702 5703 5703 5703 5703 5703 5704 5705 5706 5707 5709 5711 5712 5714 5715 5715 5716 5716 5717 5717 5718 5718 5719 5719 5720 5721 5722 5723 5723 5724 5724 5724 5723 5723 5725 5725 5725 5725 5726 5726 5726 5727 5726 5726 5726 5726 5726 5727 5727 5727 5727 5728 5728 5728 5729 5730 5730 5730 5730 5730 5729 5729 5729 5728 5728 5728 5728 5728 5728 5728 5727 5726 5726 5725 5725 5724 5724
5692 5693 5695 5695 5696 5696 5698 5698 5698 5699 5700 5700 5700 5701 5701 5702 5702 5703 5703 5705 5706 5708 5709 5710 5711 5712 5713 5714 5714 5715 5715 5716 5716 5717 5717 5718 5718 5719 5719 5720 5720 5720 5721 5721 5721 5721 5722 5722 5723 5723 5722 5722 5722 5722 5722 5722 5723 5723 5723 5724 5724 5724 5724 5725 5725 5725 5724 5724 5724 5724 5723 5722 5722 5722 5722 5723 5723 5724 5723 5721 5719 5720 5720 5719 5719
5688 5689 5690 5691 5692 5693 5694 5695 5695 5695 5696 5697 5698 5698 5699 5700 5701 5701 5700 5701 5702 5703 5703 5704 5706 5707 5708 5709 5710 5711 5711 5711 5712 5712 5712 5713 5713 5714 5714 5715 5715 5715 5716 5716 5717 5717 5717 5718 5718 5718 5718 5718 5717 5717 5717 5717 5718 5718 5719 5719 5719 5720 5720 5720 5720 5720 5719 5719 5719 5719 5718 5717 5716 5716 5716 5717 5718 5719 5719 5716 5713 5714 5714 5714 5713
5684 5685 5686 5687 5688 5689 5690 5691 5691 5691 5692 5693 5694 5694 5695 5696 5697 5698 5698 5698 5699 5699 5699 5699 5700 5702 5703 5704 5705 5706 5707 5707 5707 5708 5708 5708 5708 5709 5709 5709 5710 5710 5710 5711 5712 5712 5712 5713 5713 5713 5713 5713 5712 5712 5712 5711 5711 5711 5713 5713 5713 5714 5714 5714 5714 5714 5714 5714 5714 5714 5714 5713 5712 5711 5711 5710 5712 5713 5713 5710 5708 5708 5708 5707 5707
5679 5680 5682 5682 5684 5685 5685 5686 5687 5688 5688 5689 5690 5691 5691 5692 5693 5694 5694 5694 5695 5696 5696 5696 5696 5696 5697 5698 5699 5700 5701 5701 5702 5702 5702 5703 5703 5703 5704 5704 5704 5704 5705 5705 5706 5706 5706 5707 5707 5707 5707 5707 5707 5706 5705 5705 5704 5704 5705 5705 5706 5707 5708 5708 5708 5708 5708 5708 5709 5709 5710 5709 5708 5707 5706 5705 5705 5706 5706 5704 5703 5702 5701 5700 5700
5673 5674 5676 5677 5679 5680 5681 5682 5683 5684 5684 5685 5687 5687 5688 5688 5689 5690 5690 5690 5691 5692 5692 5692 5692 5692 5692 5692 5693 5693 5694 5694 5695 5695 5695 5695 5695 5696 5696 5697 5697 5697 5698 5698 5699 5699 5700 5700 5701 5701 5701 5701 5701 5700 5699 5698 5698 5697 5697 5698 5698 5699 5700 5701 5702 5701 5701 5701 5702 5702 5703 5703 5702 5701 5700 5699 5699 5700 5700 5698 5696 5695 5694 5693 5692
5667 5669 5670 5671 5673 5674 5675 5676 5677 5679 5680 5681 5682 5683 5684 5684 5685 5686 5686 5687 5687 5688 5688 5688 5688 5688 5688 5688 5688 5688 5688 5688 5689 5689 5689 5689 5689 5689 5689 5689 5689 5689 5689 5690 5690 5691 5692 5693 5693 5694 5694 5694 5694 5694 5693 5693 5692 5691 5691 5691 5692 5692 5693 5693 5694 5695 5695 5695 5694 5694 5694 5694 5694 5694 5693 5692 5692 5693 5693 5691 5689 5688 5687 5685 5684
5663 5664 5664 5666 5667 5668 5668 5670 5671 5673 5674 5675 5676 5677 5678 5680 5681 5681 5682 5682 5682 5683 5683 5682 5682 5682 5682 5682 5682 5682 5682 5682 5683 5683 5683 5682 5682 5682 5682 5682 5682 5682 5682 5682 5682 5683 5684 5685 5685 5686 5686 5686 5686 5687 5687 5687 5687 5686 5685 5685 5685 5685 5685 5685 5686 5687 5687 5687 5687 5686 5686 5685 5685 5685 5685 5685 5685 5686 5686 5684 5682 5682 5680 5678 5676
5659 5659 5660 5661 5662 5662 5663 5665 5666 5667 5668 5669 5670 5671 5672 5673 5674 5674 5675 5675 5675 5675 5675 5675 5675 5675 5675 5675 5675 5675 5675 5675 5675 5675 5675 5675 5674 5674 5674 5674 5674 5674 5674 5674 5674 5675 5675 5676 5677 5678 5678 5678 5678 5679 5680 5680 5680 5679 5678 5677 5677 5676 5676 5676 5677 5678 5678 5678 5678 5678 5678 5677 5676 5676 5677 5677 5677 5678 5679 5678 5677 5675 5673 5671 5670
5655 5655 5657 5658 5658 5658 5659 5660 5661 5662 5662 5663 5664 5664 5665 5666 5666 5667 5667 5667 5667 5668 5668 5668 5668 5668 5668 5668 5668 5668 5669 5668 5668 5668 5667 5667 5667 5667 5666 5666 5666 5666 5666 5665 5666 5666 5666 5667 5669 5669 5670 5669 5670 5670 5671 5671 5671 5671 5669 5668 5667 5667 5666 5666 5667 5668 5668 5668 5668 5668 5668 5667 5667 5669 5669 5669 5669 5669 5671 5671 5670 5668 5667 5666 5665
5651 5652 5652 5653 5653 5653 5654 5655 5656 5657 5657 5657 5658 5659 5659 5659 5659 5660 5660 5660 5660 5661 5661 5661 5662 5662 5662 5662 5662 5662 5661 5661 5661 5661 5661 5660 5660 5660 5659 5659 5659 5658 5658 5658 5658 5658 5658 5659 5660 5660 5661 5660 5660 5660 5661 5661 5661 5660 5660 5658 5657 5656 5656 5655 5656 5657 5658 5657 5657 5657 5657 5657 5659 5660 5660 5660 5661 5661 5662 5663 5663 5661 5659 5659 5659
5647 5647 5648 5648 5649 5649 5649 5650 5651 5651 5652 5652 5652 5653 5653 5653 5653 5653 5653 5653 5654 5654 5654 5655 5655 5655 5655 5655 5655 5654 5654 5654 5654 5654 5653 5653 5653 5653 5653 5652 5652 5651 5651 5651 5650 5650 5651 5651 5651 5652 5652 5652 5651 5651 5651 5651 5650 5649 5649 5648 5647 5646 5645 5645 5646 5647 5647 5646 5646 5646 5647 5648 5650 5651 5651 5653 5654 5653 5652 5653 5654 5653 5652 5651 5652
5641 5642 5642 5643 5643 5643 5643 5644 5645 5646 5646 5646 5646 5647 5647 5646 5646 5646 5647 5647 5648 5648 5647 5647 5647 5647 5647 5647 5647 5646 5646 5645 5645 5645 5645 5645 5644 5644 5644 5644 5643 5642 5642 5642 5641 5642 5642 5641 5642 5642 5642 5642 5642 5640 5639 5639 5638 5637 5637 5637 5637 5636 5635 5635 5636 5636 5635 5634 5635 5636 5637 5638 5639 5640 5642 5645 5646 5645 5644 5645 5646 5645 5644 5643 5643
5636 5637 5637 5637 5637 5636 5637 5639 5639 5639 5639 5640 5640 5640 5640 5640 5640 5640 5641 5641 5641 5641 5640 5640 5640 5640 5639 5639 5639 5638 5638 5637 5637 5636 5636 5635 5634 5634 5634 5633 5632 5632 5631 5631 5631 5631 5630 5630 5630 5630 5630 5631 5631 5629 5627 5626 5626 5626 5625 5625 5625 5624 5624 5624 5624 5623 5622 5623 5624 5626 5627 5627 5628 5630 5632 5634 5636 5636 5637 5638 5638 5637 5635 5635 5635
5630 5631 5631 5631 5630 5630 5631 5633 5633 5632 5632 5633 5633 5633 5633 5633 5634 5634 5634 5633 5633 5633 5633 5633 5633 5632 5632 5631 5631 5630 5630 5629 5629 5628 5627 5626 5625 5624 5624 5623 5622 5621 5620 5620 5619 5619 5618 5617 5617 5617 5617 5618 5618 5617 5614 5613 5614 5614 5613 5613 5613 5612 5612 5613 5612 5610 5610 5612 5614 5616 5617 5617 5618 5620 5622 5624 5626 5627 5629 5630 5631 5630 5628 5628 5627
5623 5624 5623 5623 5623 5624 5625 5626 5625 5625 5626 5626 5625 5625 5626 5626 5626 5626 5626 5626 5626 5626 5626 5625 5625 5625 5624 5624 5623 5623 5622 5622 5621 5620 5619 5618 5616 5615 5614 5613 5612 5611 5610 5609 5609 5608 5607 5606 5605 5604 5604 5605 5606 5605 5603 5601 5601 5601 5602 5601 5601 5601 5601 5601 5600 5599 5600 5603 5605 5607 5608 5609 5609 5611 5612 5614 5617 5619 5620 5621 5622 5622 5622 5620 5620
5616 5616 5616 5616 5616 5617 5618 5619 5618 5619 5619 5618 5618 5619 5619 5619 5619 5619 5619 5619 5619 5618 5618 5617 5617 5617 5616 5615 5615 5614 5614 5613 5612 5612 5611 5609 5607 5604 5603 5603 5603 5602 5599 5598 5597 5597 5597 5596 5595 5594 5592 5592 5593 5594 5592 5590 5589 5589 5590 5590 5590 5589 5589 5590 5590 5590 5591 5593 5596 5597 5599 5599 5600 5602 5604 5605 5608 5610 5611 5612 5613 5613 5613 5612 5612